Location: Retiro das Pedras
(20.0874°S, 43.9885°W)
Time: 03:42:46
(UTC+00:00)

Daily predictions for brighter satellites

Satellite Brightness Start Highest point End
(mag) Time Altitude Azimuth Time Altitude Azimuth Time Altitude Azimuth
CZ-3B R/B 3.9 06:52:11 74° NNW 06:53:11 89° NE 07:24:00 10° SE
Cosmos 2278 Rocket 3.1 07:02:31 43° NE 07:02:31 43° NE 07:06:24 10° NNE
DELTA 2 R/B (1) 4.4 07:08:03 49° E 07:08:03 49° E 07:12:08 10° ENE
H-2A ROCKET BODY 4.4 07:01:09 45° WSW 07:09:05 66° S 07:16:33 10° E
ATLAS 5 CENTAUR R/B 4.3 07:20:27 20° S 07:20:27 20° S 07:22:36 10° S
SL-4 R/B 3.2 07:34:18 36° ESE 07:34:18 36° ESE 07:37:35 10° ENE
SeaSat 1 4.0 07:30:21 10° N 07:32:26 24° NNW 07:32:26 24° NNW
MOS 1 Rocket 3.7 07:31:32 10° SSE 07:35:59 60° E 07:40:37 10° N
Cosmos 1953 2.8 07:38:04 61° ENE 07:38:04 61° ENE 07:41:41 10° NNE
CZ-2C R/B 2.0 07:38:29 49° E 07:38:29 49° E 07:41:30 10° ENE
Tiangong 3.6 07:38:50 20° ESE 07:38:50 20° ESE 07:40:24 10° E
Meteor 2-5 Rocket 4.4 07:33:42 10° N 07:39:14 53° E 07:44:44 10° SSE
GPS 2-15 Rocket1 3.7 07:40:26 45° N 07:40:26 45° N 07:44:41 10° ENE
YAOGAN 6 3.8 07:37:36 10° NNE 07:39:55 37° NNE 07:39:55 37° NNE
SWIFT 2.3 07:47:42 79° N 07:47:42 79° N 07:51:55 10° ENE
Mugunghwa Rocket 4.4 07:46:55 40° SW 07:48:23 47° S 07:54:27 10° ESE
Envisat 2.8 07:43:47 10° N 07:48:51 81° WNW 07:51:06 34° SSW
Cosmos 1503 Rocket 4.0 07:47:13 31° S 07:49:50 86° ESE 07:55:10 10° NNE
Cosmos 1603 3.9 07:48:13 10° N 07:53:51 72° ENE 07:59:34 10° SSE
ADEOS 3.6 07:49:13 10° N 07:54:17 53° WNW 07:55:10 48° WSW
Meteor 1-16 Rocket 4.1 07:53:25 17° SSW 07:57:56 72° W 08:03:27 10° N
Cosmos 1455 Rocket 2.9 07:57:19 46° SSW 07:58:32 69° W 08:02:57 10° N
Cosmos 1544 Rocket 4.1 07:54:52 10° S 07:59:20 62° E 08:03:44 10° NNE
Delta 2 Rocket 4.1 07:59:43 40° WNW 08:00:16 42° NW 08:04:25 10° NNE
CZ-4B R/B 2.5 07:59:18 10° NNE 08:02:55 85° E 08:04:29 33° S
Cosmos 1908 3.6 08:05:32 44° WNW 08:05:32 44° WNW 08:08:44 10° NNW
OAO 3 Rocket 3.8 08:04:07 32° SSW 08:05:52 47° SSE 08:10:24 10° ENE
USA 81 4.2 08:01:17 10° S 08:06:35 73° E 08:11:49 10° N
Cosmos 1943 Rocket 3.3 08:07:27 10° S 08:12:46 43° ESE 08:18:00 10° NE
Lacrosse 5 rocket 2.2 08:12:46 17° SSW 08:16:17 57° SE 08:20:49 10° NE
Cosmos 2100 Rocket 4.1 08:13:12 10° S 08:19:38 83° E 08:26:00 10° N
SJ 16-02 3.3 08:17:33 10° SSE 08:21:25 29° ESE 08:25:13 10° NE
Cosmos 1346 Rocket 3.1 08:18:18 10° NNW 08:21:57 39° W 08:25:41 10° SSW
OAO 2 Rocket 4.4 08:22:58 23° SW 08:24:45 28° SSW 08:29:12 10° SE
CZ-4C R/B 3.3 08:16:41 10° NNW 08:25:24 80° ENE 08:33:25 10° SSE
SEDSat Delta rocket 4.5 08:20:21 10° NW 08:26:38 62° NNE 08:33:21 10° ESE
CZ-4C R/B 4.0 08:23:25 10° SSE 08:26:57 51° E 08:30:27 10° N
SL-19 R/B 4.5 08:22:15 10° S 08:27:54 50° WSW 08:33:15 10° NNW
Hubble Space Telescope 1.5 08:25:00 11° NW 08:28:54 51° NNE 08:32:57 10° ESE
Sakura Rocket 3.4 08:28:33 23° W 08:30:56 51° SSW 08:36:07 10° ESE
Helios 1B 4.5 08:26:50 10° S 08:31:12 73° WSW 08:35:30 10° NNW
Cosmos 1536 Rocket 4.3 08:27:28 10° NW 08:31:25 31° W 08:35:26 10° SSW
Skynet4D Del rocket 3.9 08:30:03 20° WSW 08:33:29 46° S 08:38:42 10° ESE
CZ-4B DEB 4.5 08:31:08 10° NNE 08:36:33 74° ESE 08:42:04 10° S
PSLV R/B 4.0 08:34:07 10° NNE 08:37:56 75° ESE 08:41:55 10° S
Cosmos 1763 Rocket 3.4 08:33:15 10° NNW 08:38:26 67° WSW 08:43:34 10° S
Cosmos 1184 Rocket 3.2 08:40:20 10° NNW 08:43:21 38° W 08:46:26 10° SSW
SMAP 3.0 08:41:13 10° N 08:45:52 83° W 08:50:33 10° SSW
Cosmos 1943 3.9 08:45:31 10° NW 08:50:26 31° WSW 08:55:24 10° S
GPS 2-12 Rocket1 3.0 08:46:15 10° W 08:50:37 79° N 08:55:06 10° E
AQUARIUS 4.1 08:47:18 10° N 08:51:47 83° W 08:56:20 10° SSW
USA 290 2.9 08:50:20 10° NW 08:53:18 33° WSW 08:56:20 10° S
SL-24 R/B - RUBIN 2 4.5 08:50:55 10° N 08:55:02 53° ENE 08:59:22 10° SE
deb Chang Zheng 4 3.6 08:51:44 10° N 08:55:56 58° WNW 09:00:11 10° SSW
MOS 1-B 4.5 08:50:41 10° NNE 08:56:29 86° ESE 09:02:20 10° SSW
Landsat 5 3.8 08:55:55 10° S 08:59:37 39° WSW 09:03:24 10° NW
H-2A R/B 3.8 08:55:25 10° NE 08:59:48 33° ESE 09:04:18 10° SSE
Cosmos 389 Rocket 3.0 08:58:14 10° SSW 09:01:23 35° W 09:04:31 10° NNW
COSMO-SKYMED 1 2.6 08:58:20 10° S 09:02:41 67° WSW 09:06:59 10° NNW
H-2A R/B (2) 4.1 07:57:32 10° WNW 09:07:29 61° SSW 09:13:05 10° ESE
